• In Italy
  • List of Countries
  • For 7 days
  • Water Temperature
  • Satellite Maps
  • Weather Map
  • Weather Widgets
  • user-avatar
    Login

    Hourly Weather Gurzuf

    Today, 24 February, Saturday

    Time Temperature Precipitation Wind Pressure Humidity
    00:00 -7°C° 0 mm 4 mps 698 mmHg 93%
    01:00 -7°C° 0 mm 4 mps 698 mmHg 93%
    02:00 -7°C° 0 mm 4 mps 698 mmHg 93%
    03:00 -7°C° 0 mm 4 mps 698 mmHg 93%
    04:00 -7°C° 0 mm 4 mps 698 mmHg 93%
    05:00 -7°C° 0 mm 4 mps 697 mmHg 92%
    06:00 -7°C° 0 mm 4 mps 697 mmHg 92%
    07:00 -7°C° 0 mm 4 mps 697 mmHg 91%
    08:00 -5°C° 0 mm 4 mps 697 mmHg 90%
    09:00 -5°C° 0.1 mm 4 mps 697 mmHg 89%
    10:00 -4°C° 0.1 mm 4 mps 697 mmHg 88%
    11:00 -4°C° 0.1 mm 4 mps 697 mmHg 87%
    12:00 -4°C° 0.1 mm 4 mps 697 mmHg 87%
    13:00 -3°C° 0.1 mm 4 mps 696 mmHg 87%
    14:00 -3°C° 0.1 mm 4 mps 696 mmHg 87%
    15:00 -3°C° 0 mm 4 mps 696 mmHg 88%
    16:00 -4°C° 0 mm 4 mps 696 mmHg 90%
    17:00 -4°C° 0 mm 4 mps 696 mmHg 91%
    18:00 -4°C° 0 mm 4 mps 695 mmHg 91%
    19:00 -4°C° 0 mm 4 mps 695 mmHg 92%
    20:00 -5°C° 0 mm 4 mps 695 mmHg 93%
    21:00 -5°C° 0 mm 4 mps 695 mmHg 93%
    22:00 -6°C° 0 mm 5 mps 695 mmHg 93%
    23:00 -6°C° 0 mm 5 mps 694 mmHg 93%

    Tomorrow, 25 February, Sunday

    Time Temperature Precipitation Wind Pressure Humidity
    00:00 -6°C° 0 mm 5 mps 694 mmHg 93%
    01:00 -6°C° 0 mm 5 mps 694 mmHg 93%
    02:00 -6°C° 0 mm 5 mps 694 mmHg 93%
    03:00 -6°C° 0.2 mm 5 mps 694 mmHg 93%
    04:00 -6°C° 0.2 mm 6 mps 694 mmHg 93%
    05:00 -6°C° 0.2 mm 6 mps 694 mmHg 93%
    06:00 -6°C° 0.3 mm 6 mps 694 mmHg 92%
    07:00 -6°C° 0.3 mm 6 mps 694 mmHg 92%
    08:00 -6°C° 0.3 mm 6 mps 694 mmHg 91%
    09:00 -6°C° 0.2 mm 6 mps 694 mmHg 90%
    10:00 -6°C° 0.2 mm 6 mps 695 mmHg 88%
    11:00 -5°C° 0.2 mm 6 mps 695 mmHg 87%
    12:00 -5°C° 0 mm 6 mps 695 mmHg 86%
    13:00 -5°C° 0 mm 6 mps 695 mmHg 85%
    14:00 -5°C° 0 mm 6 mps 695 mmHg 84%
    15:00 -6°C° 0 mm 6 mps 696 mmHg 85%
    16:00 -8°C° 0 mm 6 mps 696 mmHg 86%
    17:00 -8°C° 0 mm 5 mps 697 mmHg 86%
    18:00 -8°C° 0 mm 5 mps 697 mmHg 86%
    19:00 -10°C° 0 mm 5 mps 697 mmHg 87%
    20:00 -11°C° 0 mm 5 mps 697 mmHg 87%
    21:00 -11°C° 0 mm 5 mps 698 mmHg 86%
    22:00 -11°C° 0 mm 5 mps 698 mmHg 85%
    23:00 -11°C° 0 mm 5 mps 698 mmHg 83%

    Day after tomorrow, 26 February, Monday

    Time Temperature Precipitation Wind Pressure Humidity
    00:00 -10°C° 0 mm 4 mps 698 mmHg 82%
    01:00 -11°C° 0 mm 4 mps 698 mmHg 81%
    02:00 -11°C° 0 mm 4 mps 699 mmHg 80%
    03:00 -11°C° 0 mm 4 mps 699 mmHg 80%
    04:00 -11°C° 0 mm 4 mps 699 mmHg 79%
    05:00 -11°C° 0 mm 4 mps 699 mmHg 79%
    06:00 -11°C° 0 mm 4 mps 699 mmHg 79%
    07:00 -11°C° 0 mm 4 mps 699 mmHg 78%
    08:00 -11°C° 0 mm 4 mps 700 mmHg 77%
    09:00 -11°C° 0 mm 5 mps 700 mmHg 74%
    10:00 -10°C° 0 mm 5 mps 700 mmHg 72%
    11:00 -8°C° 0 mm 5 mps 700 mmHg 69%
    12:00 -7°C° 0 mm 5 mps 700 mmHg 69%
    13:00 -8°C° 0 mm 6 mps 699 mmHg 68%
    14:00 -8°C° 0 mm 6 mps 699 mmHg 68%
    15:00 -9°C° 0 mm 6 mps 699 mmHg 72%
    16:00 -11°C° 0 mm 7 mps 699 mmHg 75%
    17:00 -12°C° 0 mm 7 mps 699 mmHg 79%
    18:00 -12°C° 0 mm 8 mps 698 mmHg 78%
    19:00 -12°C° 0 mm 8 mps 698 mmHg 78%
    20:00 -14°C° 0 mm 9 mps 698 mmHg 78%
    21:00 -12°C° 0 mm 9 mps 698 mmHg 79%
    22:00 -12°C° 0 mm 9 mps 697 mmHg 79%
    23:00 -13°C° 0 mm 10 mps 697 mmHg 80%

    27 February, Tuesday

    Time Temperature Precipitation Wind Pressure Humidity
    00:00 -13°C° 0 mm 10 mps 696 mmHg 80%
    01:00 -13°C° 0 mm 10 mps 696 mmHg 80%
    02:00 -13°C° 0 mm 10 mps 696 mmHg 80%
    03:00 -13°C° 0 mm 10 mps 695 mmHg 80%
    04:00 -13°C° 0 mm 10 mps 694 mmHg 80%
    05:00 -13°C° 0 mm 11 mps 694 mmHg 80%
    06:00 -12°C° 0 mm 11 mps 694 mmHg 81%
    07:00 -12°C° 0 mm 10 mps 693 mmHg 81%
    08:00 -12°C° 0 mm 10 mps 693 mmHg 82%
    09:00 -10°C° 0 mm 10 mps 693 mmHg 81%
    10:00 -9°C° 0 mm 9 mps 693 mmHg 80%
    11:00 -8°C° 0 mm 9 mps 693 mmHg 79%
    12:00 -7°C° 0.5 mm 8 mps 693 mmHg 82%
    13:00 -6°C° 0.5 mm 7 mps 693 mmHg 85%
    14:00 -6°C° 0.5 mm 7 mps 692 mmHg 88%
    15:00 -5°C° 0.3 mm 6 mps 693 mmHg 90%
    16:00 -5°C° 0.3 mm 6 mps 693 mmHg 91%
    17:00 -5°C° 0.3 mm 5 mps 693 mmHg 93%
    18:00 -4°C° 0.2 mm 5 mps 693 mmHg 93%
    19:00 -4°C° 0.2 mm 5 mps 694 mmHg 94%
    20:00 -2°C° 0.2 mm 4 mps 694 mmHg 95%
    21:00 -2°C° 0.1 mm 4 mps 695 mmHg 96%
    22:00 -2°C° 0.1 mm 4 mps 695 mmHg 96%
    23:00 -1°C° 0.1 mm 3 mps 696 mmHg 97%

    28 February, Wednesday

    Time Temperature Precipitation Wind Pressure Humidity
    00:00 -2°C° 0 mm 4 mps 696 mmHg 97%
    01:00 -3°C° 0 mm 4 mps 697 mmHg 97%
    02:00 -4°C° 0 mm 5 mps 698 mmHg 97%
    03:00 -4°C° 0 mm 4 mps 698 mmHg 96%
    04:00 -4°C° 0 mm 4 mps 698 mmHg 96%
    05:00 -5°C° 0 mm 3 mps 699 mmHg 95%
    06:00 -4°C° 0 mm 3 mps 699 mmHg 91%
    07:00 -3°C° 0 mm 2 mps 700 mmHg 88%
    08:00 -2°C° 0 mm 2 mps 700 mmHg 84%
    09:00 -1°C° 0 mm 3 mps 700 mmHg 85%
    10:00 0°C° 0 mm 3 mps 700 mmHg 85%
    11:00 +1°C° 0 mm 4 mps 700 mmHg 85%
    12:00 +1°C° 0 mm 4 mps 700 mmHg 84%
    13:00 +1°C° 0 mm 5 mps 699 mmHg 83%
    14:00 +2°C° 0 mm 5 mps 699 mmHg 81%
    15:00 +1°C° 0 mm 5 mps 699 mmHg 84%
    16:00 +1°C° 0 mm 5 mps 698 mmHg 87%
    17:00 0°C° 0 mm 5 mps 698 mmHg 89%
    18:00 -1°C° 0 mm 6 mps 698 mmHg 88%
    19:00 +1°C° 0 mm 6 mps 698 mmHg 87%
    20:00 +1°C° 0 mm 6 mps 698 mmHg 85%
    21:00 +1°C° 0.1 mm 6 mps 698 mmHg 86%
    22:00 +1°C° 0.1 mm 5 mps 697 mmHg 87%
    23:00 +1°C° 0.1 mm 5 mps 697 mmHg 87%

    1 March, Thursday

    Time Temperature Precipitation Wind Pressure Humidity
    00:00 +1°C° 0.6 mm 4 mps 697 mmHg 90%
    01:00 +2°C° 0.6 mm 3 mps 697 mmHg 92%
    02:00 +2°C° 0.6 mm 3 mps 697 mmHg 94%
    03:00 +1°C° 0.6 mm 4 mps 698 mmHg 94%
    04:00 +1°C° 0.6 mm 6 mps 698 mmHg 95%
    05:00 0°C° 0.6 mm 7 mps 699 mmHg 96%
    06:00 -1°C° 0 mm 7 mps 699 mmHg 94%
    07:00 -2°C° 0 mm 7 mps 700 mmHg 92%
    08:00 -4°C° 0 mm 8 mps 700 mmHg 91%
    09:00 -4°C° 0 mm 8 mps 701 mmHg 88%
    10:00 -4°C° 0 mm 7 mps 702 mmHg 86%
    11:00 -4°C° 0 mm 7 mps 702 mmHg 84%
    12:00 -4°C° 0 mm 7 mps 702 mmHg 82%
    13:00 -4°C° 0 mm 7 mps 703 mmHg 80%
    14:00 -4°C° 0 mm 6 mps 703 mmHg 79%
    15:00 -5°C° 0 mm 6 mps 703 mmHg 79%
    16:00 -5°C° 0 mm 5 mps 703 mmHg 79%
    17:00 -5°C° 0 mm 5 mps 704 mmHg 79%
    18:00 -5°C° 0 mm 4 mps 704 mmHg 81%
    19:00 -5°C° 0 mm 4 mps 704 mmHg 83%
    20:00 -6°C° 0 mm 3 mps 705 mmHg 86%
    21:00 -6°C° 0 mm 3 mps 705 mmHg 84%
    22:00 -5°C° 0 mm 2 mps 705 mmHg 82%
    23:00 -5°C° 0 mm 2 mps 705 mmHg 81%
    Show more